WI1SKY Weather Reports


Display with metric or nautical units.
time (UTC)temp
F
wind
direction
speed
MPH
gust
MPH
rain 1hr
in
rain 24hr
in
rain mn
in
humidity
%
barometer
mb
20260903145704 71 129 1.0 2.0 0.00 0.12 0.12 94 1011.3
20260903145202 71 129 1.0 2.0 0.00 0.12 0.12 94 1011.3
20260903144702 71 129 0.0 2.0 0.01 0.12 0.12 94 1011.1
20260903144201 71 129 0.0 2.0 0.01 0.12 0.12 94 1011.1
20260903143700 71 132 0.0 0.0 0.01 0.12 0.12 94 1011.3
20260903143204 71 132 0.0 0.0 0.02 0.12 0.12 94 1011.4
20260903142701 70 231 0.0 0.0 0.03 0.12 0.12 93 1011.3
20260903142201 70 231 0.0 0.0 0.03 0.12 0.12 93 1011.5
20260903142006 70 220 0.0 0.0 0.04 0.12 0.12 92 1011.4
20260903141159 70 220 0.0 0.0 0.04 0.12 0.12 92 1011.4
20260903140657 70 220 0.0 0.0 0.05 0.12 0.12 92 1011.1
20260903140152 71 220 0.0 0.0 0.06 0.12 0.12 91 1011.1
20260903135645 71 220 0.0 0.0 0.06 0.12 0.12 91 1011.1
20260903135140 71 221 0.0 0.0 0.07 0.12 0.12 91 1011.3
20260903134638 71 221 0.0 0.0 0.06 0.11 0.11 90 1011.5
20260903134136 71 221 0.0 2.0 0.06 0.11 0.11 89 1011.9
20260903133636 71 221 0.0 3.0 0.06 0.11 0.11 89 1012.0
20260903133133 71 221 0.0 3.0 0.05 0.10 0.10 88 1012.0
20260903132634 71 221 1.0 3.0 0.05 0.09 0.09 88 1012.2
20260903132134 72 221 0.0 3.0 0.05 0.09 0.09 88 1012.7
20260903131635 72 174 1.0 3.0 0.04 0.08 0.08 88 1012.8
20260903131133 72 223 2.0 3.0 0.04 0.08 0.07 88 1012.9
20260903130633 72 223 2.0 4.0 0.03 0.07 0.07 89 1012.8
20260903130134 72 223 3.0 5.0 0.03 0.06 0.06 89 1012.8
20260903125938 72 215 3.0 5.0 0.03 0.06 0.06 89 1012.7
20260903125429 72 194 4.0 7.0 0.02 0.05 0.05 90 1012.6
20260903124632 71 196 4.0 7.0 0.04 0.05 0.05 92 1012.7
20260903124132 71 195 3.0 5.0 0.05 0.05 0.05 93 1012.8
20260903123631 71 185 1.0 4.0 0.05 0.05 0.05 93 1012.6
20260903123132 71 197 1.0 3.0 0.05 0.05 0.05 94 1012.5
20260903122629 71 217 1.0 3.0 0.04 0.04 0.04 94 1012.7
20260903122129 71 177 1.0 4.0 0.04 0.04 0.04 95 1012.6
20260903121929 71 235 1.0 6.0 0.04 0.04 0.04 95 1012.7
20260903121129 71 207 1.0 6.0 0.04 0.04 0.04 95 1012.6
20260903120929 71 212 1.0 3.0 0.03 0.03 0.03 95 1012.7
20260903120129 70 229 2.0 3.0 0.03 0.03 0.03 95 1012.6
20260903115629 70 233 1.0 3.0 0.03 0.03 0.03 95 1012.4
20260903115128 70 223 0.0 2.0 0.03 0.03 0.03 95 1012.1
20260903114629 70 223 0.0 2.0 0.01 0.02 0.00 95 1012.1
20260903114131 70 223 0.0 2.0 0.00 0.01 0.00 95 1011.8
20260903113631 70 223 0.0 0.0 0.00 0.01 0.00 95 1011.4
20260903113131 70 223 0.0 0.0 0.00 0.01 0.00 95 1011.2
20260903112636 70 223 0.0 0.0 0.00 0.01 0.00 95 1011.1
20260903112129 70 223 0.0 0.0 0.00 0.01 0.00 95 1011.0
20260903111628 69 223 0.0 0.0 0.00 0.01 0.00 95 1010.8
20260903111129 69 223 0.0 0.0 0.00 0.01 0.00 95 1010.8
20260903110748 69 223 0.0 0.0 0.00 0.01 0.00 94 1010.9
20260903110721 69 223 0.0 0.0 0.00 0.01 0.00 95 1010.8
20260903105629 70 223 0.0 0.0 0.00 0.01 0.00 94 1010.9
20260903105130 70 223 0.0 0.0 0.00 0.01 0.00 94 1010.9
20260903104629 70 223 0.0 0.0 0.00 0.02 0.00 94 1010.8
20260903104129 70 223 0.0 0.0 0.00 0.09 0.00 94 1010.5
20260903103629 70 223 0.0 0.0 0.00 0.14 0.00 94 1010.5
20260903103129 70 223 0.0 0.0 0.00 0.15 0.00 94 1010.4
20260903102934 70 223 0.0 0.0 0.00 0.15 0.00 94 1010.4
20260903102442 70 223 0.0 0.0 0.00 0.15 0.00 94 1010.3
20260903101941 70 223 0.0 0.0 0.00 0.15 0.00 94 1010.1
20260903101130 70 223 0.0 0.0 0.00 0.15 0.00 94 1010.0
20260903100630 70 223 0.0 0.0 0.00 0.15 0.00 94 1010.1
20260903100127 70 223 0.0 0.0 0.00 0.15 0.00 94 1010.1
20260903095627 70 223 0.0 0.0 0.00 0.15 0.00 94 1010.0
20260903095427 70 223 0.0 0.0 0.00 0.15 0.00 94 1010.0
20260903094624 70 223 0.0 0.0 0.00 0.15 0.00 94 1010.1
20260903094120 70 223 0.0 0.0 0.00 0.15 0.00 94 1010.0
20260903093613 70 223 0.0 0.0 0.00 0.15 0.00 94 1009.9
20260903093413 70 223 0.0 0.0 0.00 0.15 0.00 94 1010.0
20260903092607 70 223 0.0 0.0 0.00 0.15 0.00 94 1009.8
20260903092105 70 223 0.0 0.0 0.00 0.15 0.00 94 1009.8
20260903091605 70 223 0.0 0.0 0.00 0.15 0.00 94 1009.8
20260903091103 70 223 0.0 0.0 0.00 0.15 0.00 94 1009.9
20260903090603 70 223 0.0 0.0 0.00 0.15 0.00 94 1010.0
20260903085602 70 223 0.0 0.0 0.00 0.15 0.00 94 1010.0
20260903085103 70 223 0.0 0.0 0.00 0.15 0.00 94 1010.0
20260903084603 70 223 0.0 0.0 0.00 0.15 0.00 94 1010.0
20260903084102 70 223 0.0 0.0 0.00 0.15 0.00 94 1010.0
20260903083602 70 223 0.0 0.0 0.00 0.15 0.00 94 1010.1
20260903083102 70 223 0.0 0.0 0.00 0.15 0.00 94 1010.3
20260903082909 70 223 0.0 0.0 0.00 0.15 0.00 94 1010.1
20260903082103 70 223 0.0 0.0 0.00 0.15 0.00 94 1010.3
20260903081602 71 223 0.0 0.0 0.00 0.16 0.00 94 1010.1
20260903081102 71 223 0.0 0.0 0.00 0.18 0.00 94 1010.1
20260903080603 71 223 0.0 0.0 0.00 0.24 0.00 94 1010.1
20260903080103 71 223 0.0 0.0 0.00 0.35 0.00 94 1010.0
20260903075603 71 223 0.0 0.0 0.00 0.57 0.00 94 1010.0
20260903075102 71 223 0.0 0.0 0.00 0.57 0.00 94 1010.0
20260903074602 71 223 0.0 0.0 0.00 0.57 0.00 94 1010.0
20260903074102 71 223 0.0 0.0 0.00 0.57 0.00 94 1010.0
20260903073603 71 223 0.0 0.0 0.00 0.57 0.00 94 1010.1
20260903073102 71 223 0.0 0.0 0.00 0.57 0.00 93 1010.3
20260903072603 71 223 0.0 0.0 0.00 0.57 0.00 93 1010.3
20260903072103 71 223 0.0 0.0 0.00 0.57 0.00 93 1010.3
20260903071913 71 223 0.0 0.0 0.00 0.57 0.00 93 1010.4
20260903071521 71 223 0.0 1.0 0.00 0.57 0.00 93 1010.5
20260903071517 71 223 0.0 0.0 0.00 0.57 0.00 94 1010.4
20260903070100 71 223 0.0 1.0 0.00 0.57 0.00 93 1010.5
20260903065601 71 223 0.0 0.0 0.00 0.57 0.00 93 1010.6
20260903065101 71 223 0.0 1.0 0.00 0.57 0.00 93 1010.6
20260903064600 71 223 0.0 1.0 0.00 0.57 0.00 93 1010.6
20260903064101 71 223 0.0 2.0 0.00 0.57 0.00 93 1010.7
20260903063600 71 223 1.0 3.0 0.00 0.57 0.00 93 1010.6
20260903063101 71 223 1.0 3.0 0.00 0.57 0.00 93 1010.6
20260903062601 71 222 0.0 3.0 0.00 0.57 0.00 93 1010.7
20260903062102 71 178 0.0 0.0 0.00 0.57 0.00 93 1010.7
20260903061907 71 178 0.0 0.0 0.00 0.57 0.00 93 1010.7
20260903061103 71 178 0.0 0.0 0.00 0.57 0.00 93 1010.7
20260903060601 72 178 0.0 0.0 0.00 0.57 0.00 93 1010.8
20260903060100 72 178 0.0 2.0 0.00 0.57 0.00 93 1010.8
20260903055600 72 178 0.0 2.0 0.00 0.57 0.00 93 1010.8
20260903055406 72 178 0.0 2.0 0.00 0.57 0.00 93 1010.9
20260903054555 72 178 0.0 1.0 0.00 0.57 0.00 93 1010.8
20260903054054 72 178 0.0 0.0 0.00 0.57 0.00 93 1010.9
20260903053555 72 178 0.0 0.0 0.00 0.57 0.00 92 1010.8
20260903053054 72 178 0.0 1.0 0.00 0.57 0.00 92 1010.8
20260903052552 72 178 0.0 1.0 0.00 0.62 0.00 92 1010.9
20260903052353 72 178 0.0 0.0 0.00 1.03 0.00 92 1011.0
20260903051551 72 178 0.0 1.0 0.00 1.03 0.00 92 1010.9
20260903051051 72 178 0.0 1.0 0.00 1.03 0.00 92 1011.0
20260903050858 72 178 0.0 1.0 0.00 1.03 0.00 92 1011.0
20260903050048 72 178 0.0 1.0 0.00 1.03 0.00 92 1011.0
20260903045859 72 178 0.0 1.0 0.00 1.03 1.03 92 1011.0
20260903045136 72 178 0.0 0.0 0.00 1.03 1.03 92 1011.0
20260903044049 72 178 0.0 0.0 0.00 1.06 1.03 92 1011.1
20260903043547 73 178 0.0 0.0 0.00 1.18 1.03 91 1011.1
20260903043206 73 178 0.0 0.0 0.00 1.31 1.03 91 1011.1
20260903043131 73 178 0.0 0.0 0.00 1.21 1.03 91 1011.1
20260903042044 73 178 0.0 0.0 0.00 1.33 1.03 91 1011.1
20260903041543 73 178 0.0 0.0 0.00 1.38 1.03 91 1011.1
20260903041042 73 178 0.0 0.0 0.00 1.38 1.03 91 1011.1
20260903040540 73 178 0.0 0.0 0.00 1.38 1.03 91 1011.1
20260903040038 73 178 0.0 0.0 0.00 1.38 1.03 91 1011.2
20260903035535 73 178 0.0 0.0 0.00 1.38 1.03 91 1011.1
20260903035343 73 178 0.0 0.0 0.00 1.38 1.03 91 1011.2
20260903034532 74 178 0.0 0.0 0.00 1.38 1.03 90 1011.2
20260903034030 74 178 0.0 0.0 0.00 1.38 1.03 90 1011.2
20260903033529 74 178 0.0 1.0 0.00 1.38 1.03 90 1011.2
20260903033030 74 178 0.0 1.0 0.00 1.38 1.03 90 1011.2
20260903032530 74 178 0.0 0.0 0.00 1.38 1.03 90 1011.2
20260903032030 74 178 0.0 1.0 0.00 1.38 1.03 90 1011.1
20260903031529 74 178 0.0 1.0 0.00 1.38 1.03 90 1011.1
20260903031033 74 178 0.0 0.0 0.00 1.38 1.03 89 1011.1
20260903030534 74 178 0.0 0.0 0.00 1.38 1.03 89 1011.1
20260903030030 74 178 0.0 0.0 0.00 1.38 1.03 89 1011.1
20260903025531 75 178 0.0 0.0 0.00 1.38 1.03 88 1011.1
20260903025031 75 178 0.0 0.0 0.00 1.38 1.03 88 1011.1
20260903024530 75 178 0.0 0.0 0.00 1.38 1.03 87 1011.2
20260903024030 75 178 0.0 0.0 0.00 1.38 1.03 87 1011.2
20260903023837 76 178 0.0 0.0 0.00 1.38 1.03 86 1011.2
20260903023434 76 178 0.0 0.0 0.00 1.38 1.03 86 1011.1
20260903023427 76 178 0.0 0.0 0.00 1.38 1.03 86 1011.1
20260903022030 76 178 0.0 0.0 0.00 1.38 1.03 85 1011.0
20260903021530 76 178 0.0 0.0 0.00 1.38 1.03 85 1011.1
20260903021029 76 178 0.0 0.0 0.00 1.38 1.03 85 1011.0
20260903020530 76 178 0.0 1.0 0.00 1.38 1.03 85 1010.9
20260903020029 76 178 0.0 1.0 0.00 1.38 1.03 85 1010.9
20260903015529 77 178 0.0 1.0 0.00 1.38 1.03 84 1010.9
20260903015029 77 178 0.0 1.0 0.00 1.38 1.03 84 1010.9
20260903014827 77 178 0.0 1.0 0.00 1.38 1.03 83 1010.8
20260903014030 77 178 0.0 0.0 0.00 1.38 1.03 82 1010.8
20260903013530 78 178 0.0 0.0 0.00 1.38 1.03 82 1010.7
20260903013336 78 178 0.0 1.0 0.00 1.38 1.03 81 1010.6
20260903012529 78 178 1.0 2.0 0.00 1.38 1.03 80 1010.5
20260903012030 78 178 1.0 2.0 0.00 1.38 1.03 80 1010.6
20260903011529 78 178 1.0 3.0 0.00 1.38 1.03 80 1010.6
20260903011029 79 178 1.0 3.0 0.00 1.38 1.03 79 1010.5
20260903010529 79 202 0.0 0.0 0.00 1.38 1.03 78 1010.5
20260903010028 79 202 0.0 0.0 0.00 1.38 1.03 78 1010.5
20260903005831 79 202 0.0 0.0 0.00 1.38 1.03 79 1010.4
20260903005030 80 202 0.0 0.0 0.00 1.38 1.03 79 1010.5
20260903004530 80 202 0.0 0.0 0.00 1.38 1.03 78 1010.5
20260903004030 80 202 0.0 0.0 0.00 1.38 1.03 78 1010.5
20260903003529 80 202 0.0 0.0 0.00 1.38 1.03 78 1010.5
20260903003029 81 202 0.0 0.0 0.00 1.38 1.03 77 1010.4
20260903002529 81 202 0.0 0.0 0.00 1.38 1.03 77 1010.4
20260903002029 81 202 0.0 0.0 0.00 1.39 1.03 75 1010.4
20260903001529 82 202 0.0 0.0 0.00 1.39 1.03 74 1010.4
20260903001324 82 202 0.0 0.0 0.00 1.39 1.03 74 1010.3
20260903000532 82 202 0.0 0.0 0.00 1.39 1.03 71 1010.1
20260903000135 83 202 0.0 0.0 0.00 1.39 1.03 74 1009.8
20260903000115 82 202 0.0 0.0 0.00 1.39 1.03 72 1009.8
20260902235031 83 202 0.0 0.0 0.00 1.39 1.03 72 1010.0
20260902234530 83 201 0.0 0.0 0.00 1.39 1.03 71 1010.1
20260902234030 83 202 0.0 0.0 0.00 1.39 1.03 70 1010.1
20260902233532 84 202 0.0 0.0 0.00 1.39 1.03 68 1010.0
20260902233130 84 202 1.0 3.0 0.00 1.39 1.03 68 1010.0
20260902233111 84 202 0.0 2.0 0.00 1.39 1.03 68 1010.0
20260902232140 84 203 1.0 2.0 0.00 1.39 1.03 67 1010.0
20260902232112 84 202 1.0 3.0 0.00 1.39 1.03 67 1010.0
20260902231029 84 203 1.0 2.0 0.00 1.39 1.03 67 1010.0
20260902230529 85 202 1.0 2.0 0.00 1.39 1.03 66 1010.0
20260902230325 85 202 1.0 3.0 0.00 1.39 1.03 66 1010.1
20260902225528 85 202 2.0 3.0 0.00 1.39 1.03 66 1010.1
20260902225031 85 214 2.0 3.0 0.00 1.39 1.03 65 1010.1
20260902224529 85 214 1.0 3.0 0.00 1.39 1.03 66 1010.1
20260902224029 85 214 1.0 3.0 0.00 1.39 1.03 65 1010.0
20260902223531 85 214 1.0 3.0 0.00 1.39 1.03 66 1010.0
20260902223029 85 214 1.0 3.0 0.00 1.39 1.03 64 1010.1
20260902222528 85 214 1.0 3.0 0.00 1.39 1.03 64 1010.1
20260902222028 85 214 2.0 3.0 0.00 1.39 1.03 63 1010.1
20260902221529 85 214 2.0 3.0 0.00 1.39 1.03 65 1010.1
20260902221028 85 231 2.0 3.0 0.00 1.39 1.03 65 1010.1
20260902220531 85 228 2.0 3.0 0.00 1.39 1.03 65 1010.1
20260902220032 85 216 2.0 4.0 0.00 1.39 1.03 64 1010.1
20260902215531 85 217 2.0 4.0 0.00 1.39 1.03 65 1010.3
20260902215338 85 220 2.0 3.0 0.00 1.39 1.03 65 1010.3
20260902214530 85 220 2.0 3.0 0.00 1.39 1.03 64 1010.3
20260902214030 85 220 2.0 4.0 0.00 1.39 1.03 66 1010.3
20260902213530 85 203 2.0 4.0 0.00 1.39 1.03 65 1010.3
20260902213030 85 214 2.0 4.0 0.00 1.39 1.03 66 1010.3
20260902212835 85 214 2.0 4.0 0.00 1.39 1.03 65 1010.3
20260902212337 85 213 2.0 5.0 0.00 1.39 1.03 67 1010.3
20260902211841 86 196 2.0 5.0 0.00 1.39 1.03 65 1010.3
20260902211025 86 197 1.0 4.0 0.00 1.39 1.03 66 1010.4
20260902210524 86 285 1.0 4.0 0.00 1.39 1.03 66 1010.5
20260902210330 85 286 2.0 5.0 0.00 1.39 1.03 68 1010.6
20260902205520 85 165 2.0 5.0 0.00 1.39 1.03 66 1010.6
20260902205019 86 234 2.0 5.0 0.00 1.39 1.03 67 1010.6
20260902204516 86 202 2.0 4.0 0.00 1.39 1.03 66 1010.6
20260902204017 86 187 2.0 3.0 0.00 1.39 1.03 66 1010.5
20260902203516 86 186 1.0 3.0 0.00 1.39 1.03 66 1010.5
20260902203323 86 234 1.0 3.0 0.00 1.39 1.03 67 1010.6
20260902202820 86 234 2.0 4.0 0.00 1.39 1.03 64 1010.7
20260902202013 86 234 2.0 4.0 0.00 1.39 1.03 65 1010.8
20260902201513 86 196 2.0 4.0 0.00 1.39 1.03 65 1010.8
20260902201010 86 220 2.0 4.0 0.00 1.39 1.03 67 1010.8
20260902200511 86 202 2.0 4.0 0.00 1.39 1.03 63 1010.9
20260902200319 86 252 2.0 5.0 0.00 1.39 1.03 68 1011.0
20260902195511 86 232 1.0 5.0 0.00 1.39 1.03 63 1011.1
20260902195323 86 221 1.0 3.0 0.00 1.39 1.03 65 1011.1
20260902194817 86 220 1.0 3.0 0.00 1.39 1.03 65 1011.1
20260902194011 86 267 2.0 5.0 0.00 1.39 1.03 67 1011.1
20260902193511 86 267 2.0 5.0 0.00 1.39 1.03 62 1011.2
20260902193008 85 327 2.0 5.0 0.00 1.39 1.03 64 1011.3
20260902192509 85 207 2.0 4.0 0.00 1.39 1.03 62 1011.4
20260902192009 85 204 3.0 4.0 0.00 1.39 1.03 65 1011.3
20260902191508 84 215 3.0 6.0 0.00 1.39 1.03 66 1011.3
20260902191007 84 171 4.0 7.0 0.00 1.39 1.03 66 1011.4
20260902190507 84 174 5.0 7.0 0.00 1.39 1.03 66 1011.5
20260902190006 84 202 4.0 6.0 0.00 1.39 1.03 67 1011.7
20260902185505 84 211 3.0 5.0 0.00 1.39 1.03 68 1011.6
20260902185005 84 209 2.0 4.0 0.00 1.39 1.03 69 1011.7
20260902184503 84 188 2.0 4.0 0.00 1.39 1.03 66 1011.6
20260902184004 84 207 2.0 4.0 0.00 1.39 1.03 70 1011.5
20260902183809 84 198 3.0 5.0 0.00 1.39 1.03 70 1011.6
20260902183004 84 209 3.0 5.0 0.00 1.39 1.03 69 1011.6
20260902182504 83 194 2.0 5.0 0.00 1.39 1.03 70 1011.5
20260902182004 83 236 1.0 4.0 0.00 1.39 1.03 71 1011.6
20260902181502 83 225 1.0 5.0 0.00 1.39 1.03 72 1011.5
20260902181003 82 225 2.0 5.0 0.00 1.39 1.03 73 1011.6
20260902180502 82 188 2.0 5.0 0.00 1.39 1.03 72 1011.7
20260902180317 82 197 2.0 5.0 0.00 1.39 1.03 73 1011.7
20260902175821 82 199 0.0 3.0 0.00 1.39 1.03 76 1011.6
20260902175004 81 230 1.0 4.0 0.00 1.39 1.03 77 1011.5
20260902174504 81 230 2.0 4.0 0.00 1.39 1.03 75 1011.5
20260902174004 80 226 1.0 4.0 0.00 1.39 1.03 77 1011.6
20260902173503 80 236 1.0 3.0 0.00 1.39 1.03 79 1011.6
20260902173004 80 206 2.0 5.0 0.00 1.39 1.03 81 1011.7
20260902172501 79 206 2.0 5.0 0.00 1.39 1.03 79 1011.7
20260902172002 79 201 2.0 4.0 0.00 1.39 1.03 80 1011.7
20260902171501 78 240 2.0 4.0 0.00 1.39 1.03 82 1011.9
20260902171137 77 179 1.0 3.0 0.00 1.39 1.03 83 1012.0
20260902171101 78 179 1.0 4.0 0.00 1.39 1.03 82 1012.0
20260902170003 77 179 1.0 4.0 0.00 1.39 1.03 82 1011.9
20260902165502 77 179 1.0 4.0 0.00 1.39 1.03 84 1012.0
20260902165003 76 179 1.0 3.0 0.00 1.39 1.03 85 1012.1
20260902164502 76 179 2.0 3.0 0.00 1.39 1.03 86 1012.2
20260902164003 75 179 2.0 3.0 0.00 1.39 1.03 86 1012.0
20260902163502 74 179 1.0 3.0 0.00 1.39 1.03 88 1011.9
20260902163004 74 179 1.0 2.0 0.00 1.39 1.03 89 1012.1
20260902162816 73 179 1.0 3.0 0.00 1.39 1.03 90 1012.3
20260902162004 73 179 1.0 4.0 0.00 1.39 1.03 92 1012.4
20260902161502 72 179 1.0 4.0 0.00 1.39 1.03 92 1012.2
20260902161004 72 179 0.0 4.0 0.00 1.39 1.03 93 1012.1
20260902160504 72 161 0.0 0.0 0.00 1.39 1.03 94 1011.9
20260902160311 72 158 0.0 0.0 0.00 1.39 1.03 94 1011.9
20260902155502 72 158 0.0 0.0 0.00 1.39 1.03 94 1012.1
20260902155003 72 158 0.0 0.0 0.00 1.39 1.03 95 1012.1
20260902154814 71 158 0.0 0.0 0.00 1.39 1.03 94 1012.3
20260902154004 71 89 0.0 0.0 0.00 1.39 1.03 94 1012.2
20260902153811 71 89 0.0 0.0 0.00 1.39 1.03 95 1012.2
20260902153004 71 89 0.0 0.0 0.00 1.39 1.03 95 1012.2
20260902152811 71 89 0.0 0.0 0.00 1.39 1.03 95 1012.1
20260902152006 70 89 0.0 0.0 0.00 1.39 1.03 95 1012.1
20260902151502 70 89 0.0 0.0 0.00 1.39 1.03 95 1012.1
20260902151005 70 89 0.0 0.0 0.00 1.39 1.03 95 1012.1
20260902150503 70 89 0.0 0.0 0.00 1.39 1.03 95 1012.2
20260902150017 69 83 0.0 0.0 0.00 1.39 1.03 95 1012.1